CW6780 Weather Reports


time (UTC)temp
C
wind
direction
speed
KPH
gust
KPH
rain 1hr
cm
rain 24hr
cm
rain mn
cm
humidity
%
barometer
mb
20211017162528 10 215 0.0 0.0 0.00 0.00 0.15 97 1002.1
20211017161526 10 215 0.0 0.0 0.00 0.00 0.15 97 1002.1
20211017155528 10 215 0.0 0.0 0.00 0.00 0.15 97 1002.1
20211017151526 10 214 1.6 6.4 0.05 0.00 0.15 97 1002.1
20211017150528 10 215 4.8 11.3 0.05 0.00 0.15 97 1002.1
20211017145527 11 194 3.2 11.3 0.05 0.00 0.15 97 1002.2
20211017144527 11 193 4.8 9.7 0.05 0.00 0.15 97 1002.2
20211017143527 11 214 4.8 12.9 0.03 0.00 0.13 97 1002.3
20211017135527 11 58 0.0 3.2 0.00 0.00 0.10 97 1002.3
20211017133527 11 58 0.0 1.6 0.00 0.00 0.10 97 1002.2
20211017132527 11 58 0.0 0.0 0.00 0.00 0.10 97 1002.2
20211017131527 11 58 0.0 0.0 0.00 0.00 0.10 97 1002.1
20211017130527 11 58 0.0 0.0 0.03 0.00 0.10 97 1002.2
20211017125526 11 58 0.0 3.2 0.03 0.00 0.10 97 1002.1
20211017124527 11 58 0.0 3.2 0.03 0.00 0.10 97 1002.1
20211017123527 11 58 0.0 0.0 0.05 0.00 0.10 97 1002.3
20211017121526 11 58 0.0 1.6 0.05 0.00 0.10 97 1002.6
20211017114527 11 58 0.0 0.0 0.03 0.00 0.08 97 1002.9
20211017113527 11 58 0.0 0.0 0.00 0.00 0.05 97 1002.7
20211017111526 11 58 0.0 4.8 0.03 0.00 0.05 97 1002.6
20211017110527 11 58 0.0 3.2 0.05 0.00 0.05 97 1002.6
20211017105527 11 58 0.0 0.0 0.05 0.00 0.05 97 1002.7
20211017102526 11 58 0.0 1.6 0.05 0.00 0.05 97 1003.2
20211017101527 11 58 0.0 3.2 0.05 0.00 0.05 97 1003.4
20211017100527 11 58 0.0 3.2 0.03 0.00 0.03 97 1003.5
20211017095527 11 58 0.0 0.0 0.03 0.00 0.03 97 1003.5
20211017094527 11 58 0.0 0.0 0.00 0.00 0.00 96 1003.7
20211017091527 11 58 0.0 0.0 0.00 0.00 0.00 96 1003.7
20211017090527 11 58 0.0 0.0 0.00 0.00 0.00 96 1003.7
20211017082527 11 58 0.0 1.6 0.00 0.00 0.00 96 1004.1
20211017081527 11 58 0.0 0.0 0.00 0.00 0.00 96 1004.2
20211017080527 11 58 0.0 0.0 0.00 0.00 0.00 96 1004.3
20211017075527 11 58 0.0 0.0 0.00 0.00 0.00 96 1004.4
20211017074527 11 58 0.0 3.2 0.00 0.00 0.00 96 1004.4
20211017071528 12 58 0.0 0.0 0.00 0.00 0.00 96 1004.8
20211017065527 12 58 0.0 0.0 0.00 0.00 0.18 96 1005.2
20211017064528 12 58 0.0 0.0 0.00 0.00 0.18 96 1005.2
20211017063528 12 58 0.0 0.0 0.00 0.00 0.18 96 1005.2
20211017062528 12 58 0.0 1.6 0.00 0.00 0.18 96 1005.3
20211017061528 12 58 0.0 0.0 0.00 0.00 0.18 96 1005.3
20211017055528 11 58 0.0 1.6 0.00 0.00 0.18 95 1005.5
20211017054529 11 58 0.0 4.8 0.03 0.00 0.18 95 1005.3
20211017053528 11 58 0.0 4.8 0.03 0.00 0.18 95 1005.3
20211017052528 11 58 0.0 3.2 0.03 0.00 0.18 95 1005.6
20211017045528 12 58 0.0 1.6 0.03 0.00 0.18 94 1005.6
20211017044529 12 58 0.0 0.0 0.00 0.00 0.15 93 1005.7
20211017042528 12 58 0.0 1.6 0.00 0.00 0.15 93 1005.4
20211017041529 12 58 0.0 0.0 0.00 0.00 0.15 93 1005.6
20211017040528 12 58 0.0 3.2 0.00 0.00 0.15 92 1005.8
20211017033528 12 51 1.6 6.4 0.00 0.00 0.15 90 1005.7
20211017032528 12 53 1.6 11.3 0.00 0.00 0.15 90 1005.4
20211017031529 12 53 3.2 11.3 0.00 0.00 0.15 89 1005.3
20211017030528 12 62 1.6 6.4 0.00 0.00 0.15 89 1005.6
20211017025528 12 62 3.2 8.0 0.00 0.00 0.15 89 1005.6
20211017024529 12 82 3.2 6.4 0.00 0.00 0.15 89 1005.4
20211017022528 12 82 0.0 0.0 0.00 0.00 0.15 88 1005.5
20211017021529 12 82 0.0 1.6 0.00 0.00 0.15 87 1005.4
20211017020528 12 82 0.0 4.8 0.00 0.00 0.15 87 1005.5
20211017014528 12 82 0.0 1.6 0.00 0.00 0.15 86 1005.3
20211017013528 13 82 0.0 0.0 0.00 0.00 0.15 85 1005.3
20211017010529 13 82 0.0 0.0 0.00 0.00 0.15 81 1005.2
20211017005528 13 82 0.0 1.6 0.00 0.00 0.15 80 1005.2
20211017002528 15 82 0.0 3.2 0.00 0.00 0.15 76 1005.7
20211017001528 15 82 0.0 4.8 0.00 0.00 0.15 75 1005.8
20211017000529 15 87 0.0 0.0 0.00 0.00 0.15 76 1005.8
20211016235528 16 87 0.0 0.0 0.00 0.00 0.15 76 1005.8
20211016234528 16 87 0.0 4.8 0.00 0.00 0.15 76 1005.8
20211016231528 16 87 0.0 4.8 0.00 0.00 0.15 74 1005.8
20211016224528 16 77 0.0 3.2 0.00 0.00 0.15 74 1005.9
20211016223529 16 77 1.6 8.0 0.00 0.00 0.15 73 1005.9
20211016222528 16 91 0.0 1.6 0.00 0.00 0.15 75 1006.0
20211016221528 16 91 0.0 4.8 0.00 0.00 0.15 76 1006.3
20211016220529 16 91 0.0 4.8 0.00 0.00 0.15 77 1006.2
20211016212528 15 91 0.0 4.8 0.00 0.00 0.15 79 1006.4
20211016211529 15 100 0.0 4.8 0.00 0.00 0.15 79 1006.7
20211016210529 15 97 0.0 4.8 0.00 0.00 0.15 79 1006.9
20211016203529 15 64 1.6 9.7 0.00 0.00 0.15 79 1007.4
20211016195529 15 182 1.6 9.7 0.00 0.00 0.15 85 1007.7
20211016193529 13 176 1.6 8.0 0.00 0.00 0.15 92 1007.9
20211016192528 13 176 1.6 8.0 0.03 0.00 0.15 93 1007.9
20211016190528 12 87 0.0 4.8 0.03 0.00 0.15 95 1008.2
20211016185529 13 113 0.0 3.2 0.03 0.00 0.15 96 1008.3
20211016183528 12 133 0.0 3.2 0.03 0.00 0.15 97 1008.6
20211016181528 12 112 0.0 3.2 0.00 0.00 0.15 98 1008.7
20211016175528 11 82 0.0 3.2 0.00 0.00 0.15 98 1008.9
20211016174528 11 82 0.0 6.4 0.00 0.00 0.15 98 1008.9
20211016173528 11 146 0.0 3.2 0.00 0.00 0.15 98 1009.0
20211016172529 11 147 0.0 3.2 0.00 0.00 0.15 98 1008.9
20211016170528 11 168 0.0 1.6 0.00 0.00 0.15 98 1009.0
20211016165529 11 173 0.0 3.2 0.00 0.00 0.15 98 1008.9